This is the latest recevied weather packets stored in our database for station/object SQ6XL-13. If no packets are shown the sender has not sent any weather packets the latest 10 day(s).
| Time | Temp. | Humidity | Pressure | Rain* | Wind** | Luminosity | Snow |
|---|---|---|---|---|---|---|---|
| 1777926687 | 15° C | 76% | 1013 hPa | 0 mm | - | - | - |
| 1777926087 | 15° C | 76% | 1013 hPa | 0 mm | - | - | - |
| 1777925527 | 15.56° C | 75% | 1012.9 hPa | 0 mm | - | - | - |
| 1777925002 | 15.56° C | 75% | 1013 hPa | 0 mm | - | - | - |
| 1777924452 | 16.11° C | 73% | 1012.9 hPa | 0 mm | - | - | - |
| 1777923907 | 16.11° C | 75% | 1012.9 hPa | 0 mm | - | - | - |
| 1777923427 | 16.11° C | 76% | 1012.9 hPa | 0 mm | - | - | - |
| 1777922872 | 16.11° C | 74% | 1012.8 hPa | 0 mm | - | - | - |
| 1777922347 | 16.11° C | 73% | 1012.7 hPa | 0 mm | - | - | - |
| 1777921747 | 16.11° C | 74% | 1012.6 hPa | 0 mm | - | - | - |
| 1777921192 | 16.11° C | 72% | 1012.7 hPa | 0 mm | - | - | - |
| 1777920642 | 16.11° C | 70% | 1012.6 hPa | 0 mm | - | - | - |
| 1777920042 | 16.67° C | 70% | 1012.6 hPa | 0 mm | - | - | - |
| 1777919477 | 17.22° C | 68% | 1012.5 hPa | 0 mm | - | - | - |
| 1777918939 | 17.22° C | 67% | 1012.4 hPa | 0 mm | - | - | - |
| 1777918397 | 17.78° C | 65% | 1012.4 hPa | 0 mm | - | - | - |
| 1777917797 | 18.33° C | 64% | 1012.3 hPa | 0 mm | - | - | - |
| 1777917312 | 18.89° C | 64% | 1012.3 hPa | 0 mm | - | - | - |
| 1777916787 | 18.89° C | 63% | 1012.2 hPa | 0 mm | - | - | - |
| 1777916212 | 19.44° C | 63% | 1012.3 hPa | 0 mm | - | - | - |
| 1777915637 | 20° C | 63% | 1012.3 hPa | 0 mm | - | - | - |
| 1777915102 | 20° C | 62% | 1012.3 hPa | 0 mm | - | - | - |
| 1777914567 | 20.56° C | 61% | 1012.1 hPa | 0 mm | - | - | - |
| 1777914002 | 20.56° C | 58% | 1012.3 hPa | 0 mm | - | - | - |
| 1777913497 | 21.11° C | 56% | 1012.3 hPa | 0 mm | - | - | - |
* Rain latest hour (hover to see other rain measurements)
** Current wind speed in m/s (hover to see current wind gust speed)